Weather History for PHNG - December, 2012

Change the Weather History Date:

Friday, December 7, 2012

  Actual Average Record
Temperature  
Mean Temperature 78 °F -  
Max Temperature 82 °F 76 °F 82 °F (2001)
Min Temperature 73 °F 68 °F 46 °F (2001)
Cooling Degree Days 12    
Growing Degree Days 28 (Base 50)    
Moisture  
Dew Point 68 °F    
Average Humidity 75    
Maximum Humidity 95    
Minimum Humidity 57    
Precipitation  
Precipitation 0.00 in - - ()
Sea Level Pressure  
Sea Level Pressure 29.94 in    
Wind  
Wind Speed 2 mph (East)    
Max Wind Speed 7 mph    
Max Gust Speed -    
Visibility 10 miles    
Events      
Averages and records for this station are not official NWS values.
T = Trace of Precipitation, MM = Missing Value Source: NWS Daily Summary

Daily Weather History Graph

Daily Weather History Graph

Search for Another Location

Airport or City:

Trip Planner

Search our weather history database for the weather conditions in past years. The results will help you decide how hot, cold, wet, or windy it might be!

Date:

Astronomy

Dec. 07, 2012 Rise Set
Actual Time 6:56 AM HST 5:49 PM HST
Civil Twilight 6:32 AM HST 6:13 PM HST
Nautical Twilight 6:04 AM HST 6:40 PM HST
Astronomical Twilight 5:37 AM HST 7:08 PM HST
Moon 1:06 AM HST (12/7) 1:17 PM HST (12/7)
Length of Visible Light 11h 40m
Length of Day
10h 52m
Last Quarter, 36% of the Moon is Illuminated
Dec 7
Last Quarter
Dec 12
New
Dec 19
First Quarter
Dec 28
Full
Jan 4
Last Quarter

Hourly Weather History & Observations

Time (HST) Temp. Heat Index Dew Point Humidity Pressure Visibility Wind Dir Wind Speed Gust Speed Precip Events Conditions
12:57 AM 73.4 °F - 66.2 °F 78% 29.94 in 10.0 mi Calm Calm - N/A   Mostly Cloudy
1:57 AM 73.4 °F - 66.2 °F 78% 29.92 in 10.0 mi Calm Calm - N/A   Mostly Cloudy
2:57 AM 73.4 °F - 66.9 °F 80% 29.92 in 10.0 mi Calm Calm - N/A   Mostly Cloudy
3:57 AM 73.4 °F - 66.2 °F 78% 29.92 in 10.0 mi Calm Calm - N/A   Mostly Cloudy
4:57 AM 73.4 °F - 67.5 °F 82% 29.92 in 10.0 mi Calm Calm - N/A   Mostly Cloudy
5:57 AM 73.4 °F - 68.4 °F 84% 29.94 in 10.0 mi Calm Calm - N/A   Mostly Cloudy
6:57 AM 73.4 °F - 71.1 °F 92% 29.95 in 10.0 mi Calm Calm - N/A   Mostly Cloudy
7:57 AM 73.4 °F - 72.0 °F 95% 29.98 in 10.0 mi Calm Calm - N/A   Mostly Cloudy
8:57 AM 75.2 °F - 70.0 °F 84% 30.01 in 10.0 mi Calm Calm - N/A   Scattered Clouds
9:57 AM 75.2 °F - 68.0 °F 78% 30.01 in 10.0 mi NNE 3.5 mph - N/A   Scattered Clouds
10:57 AM 78.8 °F - 66.9 °F 67% 30.00 in 10.0 mi NE 5.8 mph - N/A   Partly Cloudy
11:57 AM 80.6 °F 82.2 °F 64.0 °F 57% 29.97 in 10.0 mi NNE 6.9 mph - N/A   Partly Cloudy
12:57 PM 82.4 °F 84.4 °F 66.0 °F 57% 29.94 in 10.0 mi ENE 6.9 mph - N/A   Scattered Clouds
1:57 PM 82.4 °F 84.8 °F 66.9 °F 59% 29.91 in 10.0 mi ENE 5.8 mph - N/A   Mostly Cloudy
2:57 PM 82.4 °F 85.4 °F 68.0 °F 62% 29.89 in 10.0 mi NE 4.6 mph - N/A   Mostly Cloudy
3:57 PM 82.4 °F 84.4 °F 66.0 °F 57% 29.87 in 10.0 mi ESE 6.9 mph - N/A   Mostly Cloudy
4:57 PM 75.2 °F - 66.0 °F 73% 29.87 in 10.0 mi Variable 4.6 mph - N/A   Scattered Clouds
5:57 PM 75.2 °F - 66.9 °F 75% 29.88 in 10.0 mi ESE 5.8 mph - N/A   Scattered Clouds
6:57 PM 75.2 °F - 70.0 °F 84% 29.89 in 10.0 mi ESE 5.8 mph - N/A   Scattered Clouds
7:57 PM 75.2 °F - 69.1 °F 81% 29.92 in 10.0 mi ESE 5.8 mph - N/A   Scattered Clouds
8:57 PM 75.2 °F - 70.0 °F 84% 29.94 in 10.0 mi Calm Calm - N/A   Scattered Clouds
9:57 PM - - - N/A% 29.95 in 10.0 mi Calm Calm - N/A   Clear
10:57 PM - - - N/A% 29.95 in 10.0 mi East 3.5 mph - N/A   Scattered Clouds
11:04 PM - - - N/A% 29.96 in 6.2 mi East 3.5 mph - N/A   Mostly Cloudy
11:28 PM - - - N/A% 29.96 in 6.2 mi East 3.5 mph - N/A   Scattered Clouds
11:57 PM - - - N/A% 29.95 in 10.0 mi East 4.6 mph - N/A   Scattered Clouds